Kimball, NE

7:13 AM MST on December 11, 2017 (GMT -0700)
Kimball Municipal-Arraj

Weather History for KIBM - October, 2012

Change the Weather History Date:

Wednesday, October 24, 2012

  Actual Average (KSNY) Record (KSNY)
Temperature  
Mean Temperature 36 °F -  
Max Temperature 45 °F 58 °F 83 °F (2014)
Min Temperature 28 °F 29 °F 11 °F (1980)
Degree Days  
Heating Degree Days 28    
Moisture  
Dew Point 35 °F    
Average Humidity 85    
Maximum Humidity 96    
Minimum Humidity 73    
Precipitation  
Precipitation 0.11 in - - ()
Sea Level Pressure  
Sea Level Pressure 29.90 in    
Wind  
Wind Speed 9 mph (NNE)    
Max Wind Speed 23 mph    
Max Gust Speed 31 mph    
Visibility 8 miles    
Events Rain , Snow    
Averages and records for this station are not official NWS values.
T = Trace of Precipitation, MM = Missing Value Source: NWS Daily Summary

Daily Weather History Graph

Daily Weather History Graph

Search for Another Location

Airport or City:

Trip Planner

Search our weather history database for the weather conditions in past years. The results will help you decide how hot, cold, wet, or windy it might be!

Date:

Astronomy

Oct. 24, 2012 Rise Set
Actual Time 8:17 AM CDT 6:59 PM CDT
Civil Twilight 7:48 AM CDT 7:28 PM CDT
Nautical Twilight 7:16 AM CDT 8:00 PM CDT
Astronomical Twilight 6:44 AM CDT 8:32 PM CDT
Moon 4:19 PM CDT (10/24) 3:12 AM CDT (10/24)
Length of Visible Light 11h 39m
Length of Day
10h 42m
Waxing Gibbous, 76% of the Moon is Illuminated
Oct 24
Waxing Gibbous
Oct 29
Full
Nov 6
Last Quarter
Nov 13
New
Nov 20
First Quarter

Hourly Weather History & Observations

Time (CDT) Temp. Windchill Dew Point Humidity Pressure Visibility Wind Dir Wind Speed Gust Speed Precip Events Conditions
12:15 AM 45.9 °F 40.8 °F 37.8 °F 73% 29.86 in 10.0 mi NNE 10.4 mph - N/A   Clear
12:35 AM 44.6 °F 39.2 °F 38.5 °F 79% 29.87 in 10.0 mi NE 10.4 mph - N/A   Clear
12:55 AM 43.2 °F 37.4 °F 38.3 °F 83% 29.87 in 10.0 mi NE 10.4 mph - N/A   Clear
1:35 AM 41.0 °F 35.8 °F 37.4 °F 87% 29.88 in 10.0 mi North 8.1 mph - N/A   Clear
1:55 AM 40.3 °F 35.5 °F 37.0 °F 88% 29.88 in 10.0 mi NNE 6.9 mph - N/A   Clear
2:15 AM 39.4 °F 36.1 °F 36.5 °F 89% 29.89 in 10.0 mi North 4.6 mph - N/A   Scattered Clouds
2:35 AM 40.3 °F 37.1 °F 37.4 °F 89% 29.89 in 10.0 mi North 4.6 mph - N/A   Mostly Cloudy
2:55 AM 41.0 °F 39.0 °F 37.8 °F 88% 29.90 in 10.0 mi NNE 3.5 mph - N/A   Overcast
3:15 AM 40.1 °F 36.9 °F 36.7 °F 88% 29.91 in 10.0 mi North 4.6 mph - N/A   Mostly Cloudy
3:35 AM 40.6 °F 37.5 °F 37.0 °F 87% 29.91 in 10.0 mi NNW 4.6 mph - N/A   Overcast
3:55 AM 41.5 °F 38.6 °F 37.6 °F 86% 29.92 in 10.0 mi North 4.6 mph - N/A   Overcast
4:15 AM 41.9 °F 39.0 °F 37.6 °F 85% 29.92 in 10.0 mi NW 4.6 mph - N/A   Overcast
4:35 AM 41.9 °F 40.0 °F 37.6 °F 85% 29.91 in 10.0 mi North 3.5 mph - N/A   Overcast
4:55 AM 41.9 °F 39.0 °F 37.4 °F 84% 29.91 in 10.0 mi North 4.6 mph - N/A   Overcast
5:15 AM 41.9 °F 38.2 °F 37.4 °F 84% 29.91 in 10.0 mi North 5.8 mph - N/A   Overcast
5:35 AM 41.9 °F 39.0 °F 37.4 °F 84% 29.91 in 10.0 mi NNW 4.6 mph - N/A   Overcast
5:55 AM 41.9 °F 39.0 °F 37.4 °F 84% 29.91 in 10.0 mi NNW 4.6 mph - N/A   Overcast
6:15 AM 41.9 °F 40.0 °F 37.2 °F 83% 29.90 in 10.0 mi NE 3.5 mph - N/A   Overcast
6:35 AM 41.0 °F - 36.5 °F 84% 29.89 in 10.0 mi Calm Calm - N/A   Overcast
6:55 AM 41.5 °F 39.6 °F 37.0 °F 84% 29.91 in 10.0 mi NW 3.5 mph - N/A   Overcast
7:15 AM 41.9 °F 38.2 °F 37.0 °F 83% 29.90 in 10.0 mi NNW 5.8 mph - N/A   Overcast
7:35 AM 42.1 °F 38.4 °F 37.0 °F 82% 29.91 in 10.0 mi NW 5.8 mph - N/A   Overcast
7:55 AM 42.1 °F 40.2 °F 37.4 °F 83% 29.91 in 10.0 mi NNW 3.5 mph - N/A   Overcast
8:15 AM 42.1 °F 39.2 °F 37.4 °F 83% 29.91 in 10.0 mi North 4.6 mph - N/A   Overcast
8:35 AM 42.1 °F 40.2 °F 37.4 °F 83% 29.91 in 10.0 mi NNE 3.5 mph - N/A   Overcast
8:55 AM 42.3 °F 37.9 °F 37.4 °F 83% 29.92 in 10.0 mi North 6.9 mph - N/A   Overcast
9:15 AM 42.6 °F 38.4 °F 37.4 °F 82% 29.92 in 10.0 mi North 6.9 mph - N/A   Overcast
9:35 AM 42.4 °F 37.0 °F 37.6 °F 83% 29.92 in 10.0 mi North 9.2 mph - N/A   Overcast
9:55 AM 42.8 °F 38.0 °F 37.8 °F 82% 29.92 in 10.0 mi NNE 8.1 mph - N/A   Overcast
10:15 AM 43.0 °F 38.2 °F 37.6 °F 81% 29.92 in 10.0 mi NNE 8.1 mph - N/A   Overcast
10:35 AM 43.3 °F 39.2 °F 37.8 °F 81% 29.92 in 10.0 mi NNE 6.9 mph - N/A   Overcast
10:55 AM 43.7 °F 41.1 °F 37.4 °F 78% 29.92 in 10.0 mi NNE 4.6 mph - N/A   Overcast
11:15 AM 44.6 °F 40.7 °F 37.4 °F 76% 29.91 in 10.0 mi NE 6.9 mph - N/A   Overcast
11:35 AM 44.4 °F 42.0 °F 37.2 °F 76% 29.91 in 10.0 mi ENE 4.6 mph - N/A   Overcast
11:55 AM 44.1 °F 40.8 °F 36.9 °F 76% 29.91 in 10.0 mi NE 5.8 mph - N/A   Overcast
12:15 PM 44.2 °F 39.2 °F 36.5 °F 74% 29.89 in 10.0 mi ENE 9.2 mph - N/A   Overcast
12:35 PM 44.6 °F 39.7 °F 36.5 °F 73% 29.89 in 10.0 mi ENE 9.2 mph - N/A   Overcast
12:55 PM 45.0 °F 39.7 °F 36.9 °F 73% 29.89 in 10.0 mi NE 10.4 mph - N/A   Overcast
1:15 PM 44.2 °F 38.4 °F 36.7 °F 75% 29.87 in 10.0 mi NE 11.5 mph - N/A   Overcast
1:35 PM 44.6 °F 39.2 °F 36.9 °F 74% 29.86 in 10.0 mi NE 10.4 mph - N/A   Overcast
1:55 PM 44.6 °F 39.2 °F 36.7 °F 74% 29.86 in 10.0 mi NNE 10.4 mph - N/A   Overcast
2:15 PM 44.6 °F 40.2 °F 36.5 °F 73% 29.84 in 10.0 mi NE 8.1 mph - N/A   Overcast
2:35 PM 44.2 °F 38.8 °F 36.5 °F 74% 29.84 in 10.0 mi NE 10.4 mph - N/A   Overcast
2:55 PM 44.2 °F 38.0 °F 36.5 °F 74% 29.83 in 10.0 mi NE 12.7 mph - N/A   Overcast
3:15 PM 44.1 °F 38.6 °F 36.1 °F 74% 29.82 in 10.0 mi NNE 10.4 mph - N/A   Overcast
3:35 PM 43.7 °F 38.1 °F 36.1 °F 75% 29.82 in 10.0 mi NNE 10.4 mph - N/A   Overcast
4:15 PM 43.2 °F 37.4 °F 36.0 °F 76% 29.82 in 10.0 mi NNE 10.4 mph - N/A   Overcast
4:35 PM 43.0 °F 36.4 °F 36.5 °F 78% 29.83 in 10.0 mi North 12.7 mph 16.1 mph N/A   Overcast
4:55 PM 41.5 °F 34.2 °F 37.4 °F 85% 29.83 in 10.0 mi NNE 13.8 mph - N/A   Drizzle
5:15 PM 40.6 °F 33.8 °F 37.8 °F 89% 29.83 in 10.0 mi NE 11.5 mph - N/A   Drizzle
5:35 PM 40.1 °F 32.4 °F 37.9 °F 92% 29.82 in 5.0 mi NNE 13.8 mph - N/A   Drizzle
5:55 PM 39.4 °F 31.8 °F 37.8 °F 94% 29.84 in 7.0 mi North 12.7 mph - N/A   Drizzle
6:15 PM 38.8 °F 30.8 °F 37.2 °F 94% 29.84 in 4.0 mi NNE 13.8 mph - 0.02 in Rain Rain
6:35 PM 37.4 °F 29.8 °F 35.8 °F 94% 29.85 in 4.0 mi NNE 11.5 mph 18.4 mph 0.06 in Rain Rain
6:55 PM 35.2 °F 26.6 °F 33.6 °F 94% 29.86 in 4.0 mi North 12.7 mph 19.6 mph 0.11 in Snow Snow
7:15 PM 33.3 °F 23.2 °F 32.0 °F 95% 29.87 in 2.0 mi North 15.0 mph - N/A Snow Light Snow
7:55 PM 32.7 °F 20.4 °F 31.8 °F 96% 29.89 in 1.0 mi North 21.9 mph 28.8 mph N/A Snow Snow
8:15 PM 32.0 °F 20.1 °F 30.7 °F 95% 29.92 in 0.8 mi North 19.6 mph - N/A Snow Snow
8:35 PM 31.1 °F 18.9 °F 29.8 °F 95% 29.94 in 1.0 mi North 19.6 mph - N/A Snow Snow
8:55 PM 31.1 °F 18.0 °F 29.8 °F 95% 29.95 in 1.2 mi North 23.0 mph - N/A Snow Light Snow
9:15 PM 30.2 °F 16.8 °F 28.6 °F 94% 29.96 in 0.8 mi North 23.0 mph 26.5 mph N/A Snow Snow
9:35 PM 29.5 °F 15.8 °F 28.0 °F 94% 29.95 in 1.0 mi North 23.0 mph 31.1 mph N/A Snow Light Snow
9:55 PM 29.3 °F 17.7 °F 27.7 °F 94% 29.97 in 1.2 mi North 16.1 mph 26.5 mph N/A Snow Light Snow
10:15 PM 29.1 °F 16.4 °F 27.5 °F 94% 29.98 in 2.5 mi North 19.6 mph 23.0 mph N/A Snow Light Snow
10:35 PM 29.1 °F 16.7 °F 27.3 °F 93% 29.98 in 3.0 mi North 18.4 mph - N/A Snow Light Snow
10:55 PM 28.9 °F 18.2 °F 27.1 °F 93% 30.00 in 3.0 mi North 13.8 mph - N/A Snow Light Snow
11:15 PM 28.9 °F 18.2 °F 27.1 °F 93% 30.01 in 3.0 mi North 13.8 mph - N/A Snow Light Snow
11:35 PM 28.8 °F 17.0 °F 27.1 °F 94% 30.01 in 2.0 mi North 16.1 mph - N/A Snow Light Snow
11:55 PM 28.8 °F 17.9 °F 27.1 °F 94% 30.02 in 2.0 mi NNW 13.8 mph - N/A Snow Light Snow